User: anonymous   Login
Location: Unspecified
(0.0000°N, 0.0000°E)
Time: 18:46:31
(UTC+00:00)
Language:

Tiangong 1 - Orbit

View from above orbital plane
View from above orbital plane
View from above satellite
View from above satellite

Ground track
Ground track

The orbit data is extracted from the following two-line orbital elements,

1 37820U 11053A   17234.19248826 +.00043710 +00000-0 +20543-3 0  9999
2 37820 042.7578 154.8746 0019020 192.8568 314.2607 15.82107881338414
Epoch (UTC): 22 August 2017 04:37:10
Eccentricity: 0.0019020
inclination: 42.7578°
perigee height: 312 km
apogee height: 337 km
right ascension of ascending node: 154.8746°
argument of perigee: 192.8568°
revolutions per day: 15.82107881
mean anomaly at epoch: 314.2607°
orbit number at epoch: 33841

The dashed part of the orbit path shows where the satellite is in the earth's shadow,  

DLR